[[{"header":{"parameterUnit":"m.s-1","parameterCategory":1,"la1":30.2991,"la2":30.254,"lo1":-89.0895,"lo2":-89.0444,"dy":0.0017,"dx":0.0017,"nx":28,"ny":28,"refTime":"2024-08-20T21:00:00:Z","depth":0,"parameterNumber":2,"parameterNumberName":"U-component_of_WINDS"},"data":[0,0,0,0,0,0,0,0,0,0,0,0,0,0,0,0,0,0,0,0,0,0,0,0,0,0,0,0,0,0,0,0,0,0,0,0,0,0,0,0,0,0,0,0,0,0,0,0,0,0,0,0,0,0,0,0,0,0,0.3323,0.3322,0,0.3226,0.3225,0.3224,0.3193,0.3193,0.3194,0.3194,0.3089,0.3086,0.3083,0,0,0,0,0,0,0,0,0,0,0,0,0,0.3479,0.3476,0.3323,0.3322,0.3321,0.3226,0.3225,0.3223,0.3193,0.3193,0.3194,0.3195,0.3091,0.3087,0.3083,0,0,0,0,0,0,0,0,0,0,0,0,0,0.3399,0.3475,0.3323,0.3294,0.3291,0.3226,0.3225,0.3223,0.3193,0.3193,0.3194,0.3195,0.3092,0.3087,0.3082,0.3038,0,0,0.3068,0.3065,0,0,0,0,0,0,0,0,0.3404,0.3394,0.33,0.3296,0.3292,0.3222,0.3241,0.3161,0.3193,0.323,0.3194,0.3195,0.3133,0.3125,0.3105,0.3033,0.3029,0.3067,0.3064,0.3062,0.3061,0,0,0,0,0,0,0,0.3409,0.3398,0.3284,0.3298,0.3294,0.3285,0.3274,0.3226,0.3178,0.3227,0.3224,0.3213,0.3131,0.3109,0.3102,0.3027,0.3067,0.3063,0.306,0.3058,0.2916,0.2915,0,0,0,0,0,0,0.3421,0.3402,0.3287,0.3282,0.3351,0.3282,0.327,0.3244,0.3179,0.317,0.3213,0.3212,0.3117,0.3108,0.3098,0.3042,0.3062,0.3058,0.3055,0.2917,0.2916,0.2915,0,0,0,0,0,0,0.3424,0.3411,0.3291,0.3341,0.3326,0.3278,0.3249,0.3242,0.322,0.3168,0.3159,0.32,0.3117,0.3105,0.3054,0.3038,0.3055,0.3051,0.2918,0.2916,0.2915,0.2931,0,0,0,0,0,0,0.3429,0.3412,0.3395,0.3341,0.3323,0.325,0.3248,0.3239,0.3213,0.3211,0.3154,0.3145,0.3117,0.3061,0.3049,0.3032,0.3047,0.2919,0.2917,0.2915,0.2931,0.293,0.2929,0,0,0,0,0,0.3434,0.3402,0.3395,0.3381,0.3302,0.3249,0.3238,0.3208,0.3211,0.3194,0.3161,0.3147,0.3043,0.3056,0.3042,0.3024,0.292,0.2917,0.2916,0.2932,0.293,0.2929,0,0,0,0,0,0,0.3453,0.3395,0.3385,0.3335,0.3298,0.3244,0.3221,0.3208,0.3167,0.3167,0.313,0.3117,0.3069,0.3041,0.3058,0.2978,0.298,0.2976,0.2998,0.2996,0.2995,0.3002,0.3043,0,0,0,0,0,0.3452,0.3416,0.3366,0.3326,0.3308,0.3268,0.3244,0.3225,0.3183,0.3167,0.313,0.3089,0.3047,0.302,0.2979,0.2928,0.2915,0.2908,0.2907,0.2906,0.2902,0.2874,0.287,0.2908,0.2908,0.2908,0,0,0.3448,0.3412,0.3391,0.3329,0.3298,0.326,0.3255,0.3215,0.3186,0.316,0.311,0.3082,0.3034,0.2983,0.2959,0.2959,0.2889,0.2904,0.2904,0.29,0.2871,0.2868,0.2865,0.2907,0.2907,0.2907,0,0,0.3422,0.3391,0.3355,0.3325,0.3278,0.3252,0.3244,0.3192,0.3173,0.3123,0.3104,0.3068,0.2997,0.2964,0.2938,0.2902,0.2888,0.289,0.2883,0.2856,0.2853,0.285,0.2837,0.2833,0.2886,0.2886,0.2886,0,0.3422,0.3366,0.3338,0.33,0.3273,0.3251,0.3214,0.3185,0.3126,0.3108,0.311,0.3021,0.2987,0.2928,0.292,0.29,0.2888,0.2895,0.2856,0.2853,0.285,0.2837,0.2832,0.2886,0.2886,0.2886,0.2886,0,0.3369,0.3331,0.3307,0.3254,0.3225,0.3187,0.3152,0.3126,0.311,0.3084,0.3033,0.2993,0.2943,0.2928,0.291,0.2867,0.2869,0.2863,0.2865,0.2847,0.2834,0.2829,0.2887,0.2887,0.2887,0.2887,0,0,0.3349,0.3283,0.3275,0.3251,0.3199,0.3168,0.313,0.3084,0.3062,0.3023,0.2989,0.2931,0.2927,0.2897,0.2876,0.2853,0.2827,0.285,0.2848,0.2847,0.2777,0.278,0.2775,0.2818,0.2817,0.2816,0.2781,0,0.3316,0.3248,0.3223,0.3166,0.313,0.311,0.3077,0.3041,0.3016,0.2981,0.2953,0.2912,0.2909,0.2891,0.2867,0.2835,0.2812,0.2838,0.2785,0.2784,0.2797,0.2769,0.2772,0.274,0.2776,0.2775,0.2774,0,0.3267,0.323,0.3171,0.3126,0.3109,0.308,0.3036,0.3004,0.2963,0.2946,0.2915,0.2896,0.2855,0.2861,0.2803,0.282,0.2798,0.2779,0.2777,0.277,0.2777,0.276,0.2729,0.2724,0.2766,0.2767,0.2767,0,0.3258,0.3193,0.315,0.313,0.3076,0.3056,0.3032,0.2993,0.2967,0.2928,0.2911,0.2868,0.2844,0.281,0.278,0.2787,0.2725,0.2728,0.2709,0.271,0.2695,0.2696,0.266,0.2683,0.2683,0.2683,0.2683,0,0.3222,0.3187,0.3146,0.3119,0.3079,0.305,0.3011,0.2985,0.2951,0.2918,0.2898,0.2867,0.283,0.2794,0.2771,0.2726,0.2715,0.27,0.2694,0.2701,0.2703,0.2685,0.2686,0.2682,0.2682,0.2682,0.2682,0,0.3204,0.3175,0.3127,0.3081,0.3069,0.3041,0.3001,0.2974,0.2949,0.2908,0.2897,0.2857,0.2815,0.2783,0.2726,0.2711,0.2663,0.2657,0.2678,0.2674,0.2657,0.2659,0.2606,0.2598,0.2628,0.2627,0.2627,0,0.3182,0.3155,0.3107,0.3085,0.3062,0.3026,0.3001,0.2972,0.2946,0.2899,0.2878,0.2835,0.2798,0.2731,0.2697,0.2654,0.2646,0.2631,0.2639,0.2648,0.2645,0.2647,0.2644,0.2629,0.2629,0.2629,0.2629,0,0.3147,0.3135,0.31,0.3061,0.3032,0.2998,0.2965,0.2948,0.2913,0.2885,0.2842,0.2815,0.2759,0.2716,0.2671,0.2645,0.263,0.2627,0.262,0.2626,0.2639,0.2632,0.2674,0.2627,0.2627,0.2628,0.2628,0.2628,0.3126,0.3101,0.3064,0.3026,0.2999,0.2969,0.2942,0.2915,0.288,0.2834,0.2819,0.2775,0.2736,0.2674,0.2648,0.2613,0.2612,0.2603,0.26,0.2598,0.2598,0.2647,0.2605,0.2605,0.2605,0.2605,0.2605,0,0.3089,0.3065,0.3031,0.2986,0.2956,0.2949,0.2912,0.2887,0.2849,0.2815,0.2781,0.2733,0.2692,0.2656,0.2613,0.2591,0.2584,0.2581,0.2581,0.2576,0.2601,0.2611,0.2588,0.2588,0.2588,0.2588,0.2588,0.2588,0.3066,0.3024,0.3008,0.2952,0.2928,0.2887,0.2867,0.2839,0.2812,0.2759,0.2726,0.2704,0.2669,0.2624,0.2586,0.2576,0.2561,0.2559,0.2548,0.2572,0.2574,0.2576,0.2585,0.2557,0.2557,0.2525,0.2525,0.2525]},{"header":{"parameterUnit":"m.s-1","parameterCategory":1,"la1":30.2991,"la2":30.254,"lo1":-89.0895,"lo2":-89.0444,"dy":0.0017,"dx":0.0017,"nx":28,"ny":28,"refTime":"2024-08-20T21:00:00:Z","depth":0,"parameterNumber":3,"parameterNumberName":"V-component_of_WINDS"},"data":[0,0,0,0,0,0,0,0,0,0,0,0,0,0,0,0,0,0,0,0,0,0,0,0,0,0,0,0,0,0,0,0,0,0,0,0,0,0,0,0,0,0,0,0,0,0,0,0,0,0,0,0,0,0,0,0,0,0,-2.9609,-2.961,0,-2.9695,-2.9696,-2.9697,-2.9683,-2.9681,-2.968,-2.9678,-2.9761,-2.9765,-2.9768,0,0,0,0,0,0,0,0,0,0,0,0,0,-2.9426,-2.943,-2.9609,-2.961,-2.9611,-2.9695,-2.9696,-2.9697,-2.9683,-2.9681,-2.9679,-2.9678,-2.976,-2.9764,-2.9769,0,0,0,0,0,0,0,0,0,0,0,0,0,-2.9508,-2.9431,-2.9608,-2.9614,-2.9615,-2.9695,-2.9696,-2.9697,-2.9683,-2.9681,-2.9679,-2.9677,-2.9759,-2.9764,-2.9769,-2.9847,0,0,-2.9786,-2.9788,0,0,0,0,0,0,0,0,-2.9503,-2.9515,-2.9612,-2.9614,-2.9615,-2.9676,-2.9662,-2.9747,-2.9684,-2.9657,-2.9678,-2.9676,-2.9734,-2.9742,-2.9762,-2.9851,-2.9854,-2.9786,-2.9789,-2.9792,-2.9793,0,0,0,0,0,0,0,-2.9498,-2.9511,-2.9643,-2.9614,-2.9616,-2.961,-2.962,-2.9678,-2.9707,-2.966,-2.9659,-2.9669,-2.9735,-2.9757,-2.9764,-2.9855,-2.9786,-2.9791,-2.9794,-2.9796,-3.0009,-3.0012,0,0,0,0,0,0,-2.9491,-2.9506,-2.964,-2.9645,-2.9553,-2.9615,-2.9626,-2.9659,-2.9706,-2.9712,-2.9671,-2.9668,-2.9749,-2.9758,-2.9767,-2.986,-2.9792,-2.9797,-2.98,-3.0007,-3.001,-3.0013,0,0,0,0,0,0,-2.9487,-2.9503,-2.9636,-2.9576,-2.9592,-2.9621,-2.9658,-2.9661,-2.9684,-2.9715,-2.972,-2.9689,-2.9748,-2.976,-2.9827,-2.9862,-2.9799,-2.9804,-3.0004,-3.0008,-3.0011,-3.0046,0,0,0,0,0,0,-2.9482,-2.9502,-2.9533,-2.9577,-2.9596,-2.9697,-2.966,-2.9665,-2.9694,-2.9691,-2.9733,-2.9738,-2.9747,-2.9819,-2.9832,-2.9869,-2.9808,-3.0001,-3.0006,-3.001,-3.0042,-3.005,-3.0058,0,0,0,0,0,-2.9476,-2.9539,-2.9535,-2.9551,-2.9635,-2.9699,-2.9709,-2.972,-2.9697,-2.9727,-2.9747,-2.9737,-2.9857,-2.9826,-2.9841,-2.9879,-2.9999,-3.0004,-3.001,-3.0038,-3.0049,-3.0058,0,0,0,0,0,0,-2.9497,-2.9545,-2.9541,-2.962,-2.9656,-2.9696,-2.9735,-2.9731,-2.9772,-2.9768,-2.9777,-2.9787,-2.9855,-2.9874,-2.9839,-2.9956,-2.9924,-2.9933,-2.9941,-2.9951,-2.9959,-2.9952,-2.9813,0,0,0,0,0,-2.9511,-2.9561,-2.9599,-2.9665,-2.9683,-2.9706,-2.9734,-2.9739,-2.9776,-2.979,-2.9815,-2.9849,-2.9894,-2.9924,-2.9967,-3.0045,-3.0053,-3.0078,-3.0086,-3.0093,-3.01,-3.014,-3.0152,-3.0031,-3.003,-3.003,0,0,-2.9541,-2.9573,-2.9603,-2.967,-2.9698,-2.9747,-2.9719,-2.9772,-2.9808,-2.9798,-2.9863,-2.9882,-2.9921,-2.9994,-3.0027,-3.0012,-3.0135,-3.01,-3.0105,-3.0108,-3.0147,-3.0158,-3.0169,-3.0034,-3.0034,-3.0033,0,0,-2.9619,-2.9649,-2.9707,-2.9736,-2.978,-2.9794,-2.9808,-2.985,-2.9863,-2.9929,-2.9922,-2.9963,-3.0042,-3.0069,-3.0093,-3.0181,-3.0173,-3.0195,-3.0236,-3.0276,-3.0285,-3.0294,-3.0323,-3.0334,-3.0202,-3.0202,-3.0202,0,-2.9649,-2.9725,-2.9737,-2.9791,-2.982,-2.9814,-2.9872,-2.9899,-2.9953,-2.9972,-2.9955,-3.0053,-3.0078,-3.0156,-3.0178,-3.0198,-3.0213,-3.019,-3.0283,-3.0292,-3.03,-3.0328,-3.034,-3.0205,-3.0204,-3.0204,-3.0204,0,-2.9759,-2.9811,-2.9852,-2.9907,-2.9941,-2.9996,-3.0014,-3.0046,-3.0048,-3.0064,-3.013,-3.0161,-3.021,-3.0229,-3.0231,-3.0307,-3.0296,-3.0281,-3.0249,-3.0314,-3.034,-3.0351,-3.0208,-3.0207,-3.0207,-3.0206,0,0,-2.9853,-2.9914,-2.9928,-2.9952,-3.0,-3.0039,-3.0094,-3.0143,-3.017,-3.0208,-3.0252,-3.0318,-3.0304,-3.0332,-3.0336,-3.0371,-3.0437,-3.0352,-3.0353,-3.0365,-3.052,-3.053,-3.0543,-3.0432,-3.0434,-3.0436,-3.0517,0,-2.9934,-3.0032,-3.0044,-3.013,-3.0178,-3.0173,-3.022,-3.0253,-3.0269,-3.031,-3.0327,-3.0373,-3.0352,-3.0369,-3.0403,-3.0422,-3.0468,-3.0416,-3.0471,-3.0473,-3.046,-3.0557,-3.0568,-3.0643,-3.0527,-3.0529,-3.053,0,-3.0043,-3.0085,-3.0176,-3.0216,-3.0237,-3.0279,-3.0324,-3.0364,-3.0401,-3.041,-3.0441,-3.0441,-3.0495,-3.0462,-3.0535,-3.0499,-3.0522,-3.0535,-3.0538,-3.0542,-3.0505,-3.0562,-3.0667,-3.0678,-3.0547,-3.0546,-3.0545,0,-3.01,-3.0179,-3.0244,-3.0265,-3.0314,-3.0343,-3.0365,-3.04,-3.0428,-3.0467,-3.0485,-3.053,-3.0554,-3.0587,-3.0599,-3.0574,-3.0671,-3.0639,-3.0678,-3.0677,-3.0697,-3.0695,-3.0805,-3.0715,-3.0714,-3.0714,-3.0714,0,-3.0189,-3.0244,-3.027,-3.031,-3.0371,-3.0384,-3.0444,-3.0463,-3.0494,-3.0536,-3.0534,-3.0573,-3.0586,-3.0627,-3.0636,-3.0694,-3.0705,-3.0712,-3.0713,-3.0711,-3.071,-3.0725,-3.072,-3.0717,-3.0717,-3.0716,-3.0716,0,-3.0263,-3.0283,-3.0352,-3.0393,-3.0405,-3.0448,-3.0482,-3.0519,-3.0535,-3.0587,-3.06,-3.0624,-3.0672,-3.0687,-3.0744,-3.0749,-3.0817,-3.0814,-3.0805,-3.0805,-3.0842,-3.0837,-3.0964,-3.0981,-3.0881,-3.0882,-3.0882,0,-3.0318,-3.036,-3.0406,-3.0435,-3.0458,-3.0504,-3.0533,-3.0547,-3.0577,-3.0622,-3.0653,-3.07,-3.0739,-3.0814,-3.0835,-3.0878,-3.0876,-3.0917,-3.0882,-3.0878,-3.0874,-3.0871,-3.0874,-3.0923,-3.0924,-3.0925,-3.0926,0,-3.0412,-3.042,-3.0463,-3.051,-3.0546,-3.0583,-3.0619,-3.0642,-3.066,-3.0694,-3.0743,-3.0773,-3.0831,-3.0877,-3.0921,-3.0941,-3.0935,-3.0937,-3.0948,-3.0945,-3.0937,-3.094,-3.0821,-3.0933,-3.0933,-3.0932,-3.0932,-3.0931,-3.0477,-3.0514,-3.0552,-3.06,-3.0629,-3.0662,-3.0699,-3.072,-3.0762,-3.0811,-3.0816,-3.0869,-3.0903,-3.0961,-3.0983,-3.1023,-3.101,-3.1027,-3.1031,-3.1034,-3.1036,-3.0933,-3.1031,-3.1031,-3.103,-3.103,-3.103,0,-3.057,-3.0594,-3.0639,-3.0689,-3.0727,-3.0721,-3.076,-3.0791,-3.0838,-3.0871,-3.0909,-3.0964,-3.1009,-3.1034,-3.1078,-3.1105,-3.1103,-3.1116,-3.1113,-3.1117,-3.1045,-3.1031,-3.1116,-3.1116,-3.1116,-3.1116,-3.1116,-3.1116,-3.0623,-3.0685,-3.0697,-3.0773,-3.0796,-3.0849,-3.0872,-3.0902,-3.0928,-3.0991,-3.1029,-3.1045,-3.1074,-3.112,-3.116,-3.1166,-3.1181,-3.1195,-3.1199,-3.1131,-3.1122,-3.1114,-3.11,-3.1199,-3.1199,-3.1267,-3.1268,-3.1269]}]]